Regional Weather Roundup
Issued by NWS Glasgow, MT

Home | Current Version | Previous Version | Text Only | Print | Product List | Glossary On
Versions: 1 2 3 4 5 6 7 8 9 10 11 12 13 14 15 16 17 18 19 20 21 22 23 24 25 26 27
000
ASUS45 KGGW 231315
RWRGGW
HOURLY REGIONAL WEATHER ROUNDUP FOR NORTHEAST MONTANA
NATIONAL WEATHER SERVICE GLASGOW MONTANA
700 AM MDT SAT JUL 23 2016

NOTE: "FAIR" INDICATES FEW OR NO CLOUDS BELOW 12,000 FEET WITH NO
SIGNIFICANT WEATHER AND/OR OBSTRUCTIONS TO VISISBILITY.

NORTHEAST MONTANA


CITY           SKY/WX    TMP DP  RH WIND       PRES   REMARKS
GLASGOW        CLOUDY    63  52  67 W18G28    29.87R
PLENTYWOOD       N/A     66  58  75 W12G23      N/A
WOLF POINT     CLOUDY    67  57  70 SW13      29.86R
JORDAN           N/A     60  52  74 W8        29.93R
WINNETT          N/A     57  45  64 S3G16       N/A
SIDNEY         SUNNY     68  62  81 W9        29.84R
GLENDIVE       SUNNY     66  62  87 W9        29.88R
OPHEIM           N/A     57  54  88 W9        29.60R

FORT PECK REPORTS


CITY           SKY/WX    TMP DP  RH WIND       PRES   REMARKS
FORT PECK        N/A     65  49  56 W15         N/A

SOUTHEAST MONTANA


CITY           SKY/WX    TMP DP  RH WIND       PRES   REMARKS
BILLINGS       MOSUNNY   65  44  46 SW7       30.04R
MILES CITY     PTSUNNY   68  50  52 W15       29.93R
BAKER          SUNNY     64  61  90 W14       29.87R
LIVINGSTON     CLEAR     61  38  42 NW14      30.12S

CENTRAL MONTANA


CITY           SKY/WX    TMP DP  RH WIND       PRES   REMARKS
HAVRE            N/A    N/A N/A N/A MISG      29.90R
LEWISTOWN      SUNNY     59  40  49 SW15      30.03R
GREAT FALLS    CLEAR     58  42  55 S9        30.04R
CUT BANK       CLEAR     58  43  57 W17       30.03R
HELENA         CLEAR     64  39  39 W10G18    30.14R
BUTTE          CLEAR     44  37  76 E6        30.25R
BOZEMAN        CLEAR     54  44  69 CALM      30.17R

WESTERN MONTANA


CITY           SKY/WX    TMP DP  RH WIND       PRES   REMARKS
MISSOULA       CLEAR     55  46  71 N3        30.18R
KALISPELL      NOT AVBL

NORTH DAKOTA


CITY           SKY/WX    TMP DP  RH WIND       PRES   REMARKS
WILLISTON      CLOUDY    67  63  87 S5        29.83R
DICKINSON      MOSUNNY   65  61  87 E6        29.80F
MINOT          LGT RAIN  67  64  90 SE9G20    29.81F
BISMARCK       LGT RAIN  67  66  97 NE8       29.76F

SOUTHERN SASKATCHEWAN


CITY           SKY/WX    TMP DP  RH WIND       PRES   REMARKS
REGINA         LGT RAIN  66  64  94 S17G23    29.68F
ESTEVAN        PTSUNNY   68  63  83 S8        29.79S
SWIFT CURRENT  MOSUNNY   57  55  94 W14G26    29.78R





USA.gov is the U.S. government's official web portal to all federal, state and local government web resources and services.